Погода Кокшетау

Погода Кокшетау : погода сейчас, прогноз погоды и архив. Всё, что Вы хотите узнать о погоде Кокшетау!

Хотите узнать прогноз погоды в Кокчетаве? Тогда Вам сюда: Погода в Кокчетаве

Поиск расширенной информации на нашем сайте:

Другие новости

Новости СМИ2

Главная страница сайта

Новости сайта

03.07.2017

Напоминаем, что на нашем специализированном сайте Метеоцентр.Азия вы можете получить высокодетализированные автоматические прогнозы погоды по пунктам России, СНГ и мира в авиационном формате (включающие направление и скорость ветра, видимость, явления погоды, количество и форму облачности, нижнюю и верхнюю границу облачности).


Погода Кокшетау - сегодня

Время (UTC), дата Ветер
(°,м/с) 
Видим.   Явления Облачность Т
(°С)
Тd
(°С)
f(%) Тe
(°С)
Pmin
(гПа)
dP
(гПа)
Po
(мм)
O2
(г/м3)
Тmin Tmax R s Состояние
почвы
18 16.10.17 120 (ЮВ) н/о    10/0 верхняя 
[Cs]
+3.4 -1.3 71 +2  1019.5  743  296    +11.9       
21 16.10.17 110 (В) н/о    10/0 верхняя 
[Cs]
+1.9 -2.1 75 1019.2  -0.4  743  298           
00 17.10.17 120 (ЮВ) н/о    6/0 верхняя 
[Cs]
+1.8 -1.3 80 1018.5  -0.7  743  297           
03 17.10.17 110 (В) 20000 м    6/4 1000 м верхняя 
[Sc|Ci fib]
+1.1 -1.5 83 -2  1018.2  -0.4  742  298           
06 17.10.17 100 (В) 20000 м    8/0 верхняя 
[Ci]
+8.2 +1.1 61 +6  1016.4  -1  741  290  -0.2         
09 17.10.17 080 (В) 20000 м    4/0 верхняя 
[Ci fib]
+11.3 +1.1 49 +10  1014.4  -1.7  740  286           
12 17.10.17 100 (В) 20000 м    1/0 верхняя 
[Ci fib]
+9.3 +2.8 64 +8  1012.9  -1.6  739  287           
15 17.10.17 100 (В) н/о    3/0 верхняя 
[Ci fib]
+5.3 +2.6 83 +3  1012.7  -0.6  739  291    +11.8       
18 17.10.17 110 (В) н/о    4/0 средняя, верхняя 
[Ac trans|Ci fib]
+3.7 +1.7 87 +1  1010.6  -2.2  737  293    +11.8       
21 17.10.17 080 (В) н/о    3/0 верхняя 
[Ci fib]
+3.1 +1.6 90 +3  1008.3  -2.3  735  293           
00 18.10.17 070 (В) н/о    3/0 верхняя 
[Ci fib]
+0 -0.9 94 +1  1006.7  -1.9  734  296           
03 18.10.17 140 (ЮВ) 4000 м  дымка  8/0 средняя, верхняя 
[Ac trans|Ci fib]
+1 -0.1 92 1005.2  -1.3  733  294           
06 18.10.17 120 (ЮВ) 20000 м    10/0 средняя, верхняя 
[Ac und|Ci fib]
+7.8 +3.9 76 +6  1002.1  -2.4  731  286  -0.2         
09 18.10.17 160 (Ю) 20000 м  слаб. ливневой дождь  10/10 1000 м кучево-дожд. 
[Cb cap]
+12.9 +7 67 +13  1001.4  -0.1  731  280           
12 18.10.17 190 (Ю) 20000 м  {ливн. осадки}  10/10 300 м кучево-дожд. 
[Cb cap]
+9.5 +5.1 74 +8  1003.6  1.8  732  284           
15 18.10.17 190 (Ю) н/о    10/10 600 м 
[Sc]
+8.3 +2.4 66 +6  1005.4  1.6  733  286    +14.2  0.0     
18 18.10.17 160 (Ю) н/о    9/9 1000 м 
[Sc]
+6.3 +1.4 71 +6  1005.7  0.1  734  289    +14.2  0.0     
21 18.10.17 140 (ЮВ) н/о    ясно 
+4.1 +1 80 +4  1005.7  -0.2  733  291           
00 19.10.17 110 (В) н/о    8/8 600 м 
[Sc]
+2.5 +1.2 91 +2  1005.3  -0.6  733  292           
03 19.10.17 120 (ЮВ) 20000 м    8/0 средняя, верхняя 
[Ac und|Ci fib]
+2.6 +0.5 86 +1  1003.7  -1.5  732  292           
06 19.10.17 120 (ЮВ) 20000 м    8/8 600 м кучево-дожд. 
[Cb cap]
+8.6 +1.4 61 +9  1003.2  0.1  732  286  +0.4         
09 19.10.17 020 (С) 20000 м    8/8 600 м 
[Cu med, cong]
+9.3 +1.4 58 +9  1003.2  732  285           
12 19.10.17 тихо ()   20000 м    8/8 600 м 
[Cu med, cong]
+7.9 +0.5 59 +8  1006.6  3.2  734  287           
15 19.10.17 200 (Ю) н/о    10/10 1000 м 
[Sc]
+5.8 +1.9 76 +5  1007  0.2  734  289    +9.8       
18 19.10.17 220 (ЮЗ) н/о    10/10 1000 м 
[Sc]
+5.4 +0.9 73 +3  1006.8  -0.2  734  290    +9.8       
Время (UTC), дата Ветер
(°,м/с) 
Видим.   Явления Облачность Т
(°С)
Тd
(°С)
f(%) Тe
(°С)
Pmin
(гПа)
dP
(гПа)
Po
(мм)
O2
(г/м3)
Тmin Tmax R s Состояние
почвы

Для получения пояснительной информации подведите курсор к названию столбца.

ПОГОДА Кокшетау - архив

Всё, что Вы хотите узнать о погоде Кокшетау - удобно и подробно!

Выберите нужную дату (начиная с 1 января 2015* года) и нажмите кнопку "Найти".
Будут отображены архивные сводки погоды по пункту Кокшетау, начиная с указанной даты.


Отображать данные в формате CSV (для использования в таблицах Excel)


Внимание! Наш архив погоды предназначен исключительно для личного некоммерческого использования в познавательных целях. Если Вам необходимы официальные справки о состоянии погоды (для производственных, юридических, коммерческих и т.п. целей), обращайтесь в органы Росгидромета.

*Примечание: данная дата относится к архиву по метеостанциям СССР (Россия, СНГ, Балтия).
Архив по метеостанциям Зарубежной Европы и Азии (кроме Китая) хранится 10 дней, по другим регионам земного шара (Китай, Африка, Америка, Австралия, Океания) - 1 день.

Кокшетау - район местоположения метеостанции


Название, широта, долгота, высота метеостанции:
Кокшетау 53.3°ш. 69.4°д. 229 м над ур. моря [Казахстан]

Дополнительная информация

В oтличие oт бoльшинства пoгoдных сайтoв мы публикуем пoдрoбную метеoинфoрмацию в детальнoм прoфессиoнальнoм фoрмате.

Характеристики температуры и влажнoсти вoздуха измеряются на высoте 2 м в тени вдали oт зданий и деревьев.
Скoрoсть ветра измеряется на высoте 10 м (на урoвне рoста челoвека скoрoсть ветра ниже в 1.5-2 раза). Если метеoстанция нахoдится в гoрoде или в лесу, тo скoрoсть ветра занижена на 2-4 м/с пo сравнению с oткрытым местoм. Скoрoсть ветра над акватoриями крупных рек и oзёр, а также на вершинах хoлмoв на 2-5 м/с выше, чем в oбычных услoвиях.
Атмoсфернoе давление в разных тoчках местнoсти мoжет значительнo oтличаться oт давления на метеoстанции, в зависимoсти oт услoвий рельефа (при пoдъёме на 10 м давление пoнижается примернo на 1 мм рт.ст.).